Location: Obersdorf
(47.4079°N, 10.2781°E)
Time: 22:30:19
(UTC+01:00)

AO-109 - Pass Details

Date: 30 November 2021
Orbit: 479 x 515 km, 60.7° (Epoch: 27 January)

Event Time Altitude Azimuth Distance (km) Brightness Sun altitude
Exits shadow 05:30:27 18° 9° (N) 1,252 ? -21.9°
Maximum altitude 05:31:09 19° 25° (NNE) 1,216 ? -21.8°
Drops below altitude 10° 05:33:50 10° 71° (ENE) 1,658 ? -21.3°
Sets 05:36:28 0° 90° (E) 2,535 ? -20.9°
